Oakes, ND

11:54 PM CST on December 13, 2017 (GMT -0600)
Oakes

Weather History for K2D5 - January, 2013

Change the Weather History Date:

Tuesday, January 15, 2013

  Actual Average (KP67) Record (KP67)
Temperature  
Mean Temperature 10 °F -  
Max Temperature 30 °F 13 °F 18 °F (1998)
Min Temperature -7 °F 0 °F -4 °F (1997)
Degree Days  
Heating Degree Days 54    
Moisture  
Dew Point 9 °F    
Average Humidity 89    
Maximum Humidity 100    
Minimum Humidity 79    
Precipitation  
Precipitation 0.00 in - - ()
Sea Level Pressure  
Sea Level Pressure 29.91 in    
Wind  
Wind Speed 15 mph (South)    
Max Wind Speed 26 mph    
Max Gust Speed 32 mph    
Visibility 10 miles    
Events Snow    
Averages and records for this station are not official NWS values.
T = Trace of Precipitation, MM = Missing Value Source: NWS Daily Summary

Daily Weather History Graph

Daily Weather History Graph

Search for Another Location

Airport or City:

Trip Planner

Search our weather history database for the weather conditions in past years. The results will help you decide how hot, cold, wet, or windy it might be!

Date:

Astronomy

Jan. 15, 2013 Rise Set
Actual Time 8:10 AM CST 5:13 PM CST
Civil Twilight 7:37 AM CST 5:47 PM CST
Nautical Twilight 6:59 AM CST 6:24 PM CST
Astronomical Twilight 6:24 AM CST 7:00 PM CST
Moon 9:59 AM CST (1/15) 10:24 PM CST (1/15)
Length of Visible Light 10h 10m
Length of Day
9h 02m
Waxing Crescent, 19% of the Moon is Illuminated
Jan 15
Waxing Crescent
Jan 18
First Quarter
Jan 26
Full
Feb 3
Last Quarter
Feb 10
New

Hourly Weather History & Observations

Time (CST) Temp. Windchill Dew Point Humidity Pressure Visibility Wind Dir Wind Speed Gust Speed Precip Events Conditions
12:15 AM -5.8 °F -18.4 °F -9.4 °F 84% 30.15 in 10.0 mi SSW 5.8 mph - N/A   Unknown
12:35 AM -7.6 °F -22.1 °F -9.4 °F 92% 30.14 in 10.0 mi South 6.9 mph - N/A   Clear
12:55 AM -4.0 °F -22.1 °F -7.6 °F 85% 30.14 in 10.0 mi SSW 11.5 mph - N/A   Unknown
1:15 AM -0.4 °F -16.7 °F -4.0 °F 85% 30.14 in 10.0 mi SSW 10.4 mph - N/A   Unknown
1:35 AM -0.4 °F -13.4 °F -2.2 °F 92% 30.13 in 10.0 mi SSE 6.9 mph - N/A   Unknown
1:55 AM -0.4 °F -13.4 °F -2.2 °F 92% 30.12 in 10.0 mi SSE 6.9 mph - N/A   Unknown
2:15 AM -0.4 °F -14.7 °F -2.2 °F 92% 30.12 in 10.0 mi South 8.1 mph - N/A   Overcast
2:35 AM 1.4 °F -14.5 °F -0.4 °F 92% 30.11 in 10.0 mi South 10.4 mph - N/A   Unknown
2:55 AM 1.4 °F -11.3 °F -0.4 °F 92% 30.11 in 10.0 mi SSE 6.9 mph - N/A   Unknown
3:15 AM 1.4 °F -12.5 °F -0.4 °F 92% 30.10 in 10.0 mi SSE 8.1 mph - N/A   Unknown
3:55 AM 5.0 °F -8.1 °F 1.4 °F 85% 30.08 in 10.0 mi South 8.1 mph - N/A   Overcast
4:15 AM 5.0 °F -9.1 °F 3.2 °F 92% 30.07 in 10.0 mi South 9.2 mph - N/A   Overcast
4:55 AM 5.0 °F -11.6 °F 5.0 °F 100% 30.05 in 10.0 mi South 12.7 mph - N/A   Unknown
5:15 AM 6.8 °F -10.7 °F 5.0 °F 92% 30.03 in 10.0 mi South 15.0 mph - N/A   Unknown
5:35 AM 6.8 °F -11.8 °F 5.0 °F 92% 30.02 in 10.0 mi South 17.3 mph - N/A   Unknown
6:15 AM 6.8 °F -12.9 °F 5.0 °F 92% 30.00 in 10.0 mi South 19.6 mph 24.2 mph N/A   Unknown
6:35 AM 6.8 °F -12.9 °F 6.8 °F 100% 30.00 in 10.0 mi South 19.6 mph - N/A   Unknown
6:55 AM 8.6 °F -10.0 °F 6.8 °F 92% 30.00 in 10.0 mi South 18.4 mph 23.0 mph N/A   Unknown
7:15 AM 8.6 °F -8.9 °F 6.8 °F 92% 30.00 in 10.0 mi South 16.1 mph - N/A   Unknown
7:35 AM 8.6 °F -8.9 °F 6.8 °F 92% 30.00 in 10.0 mi SSW 16.1 mph 21.9 mph N/A   Unknown
7:55 AM 8.6 °F -8.9 °F 6.8 °F 92% 30.00 in 10.0 mi SSW 16.1 mph - N/A   Unknown
8:15 AM 8.6 °F -10.5 °F 6.8 °F 92% 29.99 in 10.0 mi South 19.6 mph - N/A   Unknown
8:35 AM 6.8 °F -11.8 °F 5.0 °F 92% 30.00 in 10.0 mi South 17.3 mph - N/A   Unknown
8:55 AM 6.8 °F -12.9 °F 5.0 °F 92% 30.00 in 10.0 mi South 19.6 mph - N/A   Unknown
9:15 AM 6.8 °F -13.4 °F 5.0 °F 92% 30.00 in 10.0 mi South 20.7 mph - N/A   Overcast
9:35 AM 6.8 °F -11.3 °F 5.0 °F 92% 30.01 in 10.0 mi SSW 16.1 mph 23.0 mph N/A   Overcast
9:55 AM 6.8 °F -12.4 °F 5.0 °F 92% 30.01 in 10.0 mi South 18.4 mph - N/A   Unknown
10:15 AM 8.6 °F -10.5 °F 5.0 °F 85% 30.00 in 10.0 mi SSW 19.6 mph - N/A   Unknown
10:35 AM 8.6 °F -11.0 °F 5.0 °F 85% 29.99 in 10.0 mi South 20.7 mph - N/A   Unknown
10:55 AM 8.6 °F -11.4 °F 5.0 °F 85% 29.98 in 10.0 mi South 21.9 mph - N/A   Unknown
11:15 AM 8.6 °F -11.0 °F 5.0 °F 85% 29.98 in 10.0 mi South 20.7 mph - N/A   Overcast
11:35 AM 10.4 °F -8.2 °F 5.0 °F 79% 29.97 in 10.0 mi South 19.6 mph - N/A   Unknown
12:15 PM 10.4 °F -9.1 °F 5.0 °F 79% 29.95 in 10.0 mi SSW 21.9 mph - N/A   Unknown
12:35 PM 12.2 °F -6.7 °F 6.8 °F 79% 29.94 in 10.0 mi SSW 21.9 mph - N/A   Unknown
12:55 PM 12.2 °F -5.8 °F 6.8 °F 79% 29.93 in 10.0 mi SSW 19.6 mph 24.2 mph N/A   Unknown
1:15 PM 14.0 °F -3.0 °F 8.6 °F 79% 29.92 in 10.0 mi SSW 18.4 mph - N/A   Clear
1:35 PM 14.0 °F -3.0 °F 8.6 °F 79% 29.91 in 10.0 mi South 18.4 mph - N/A   Unknown
1:55 PM 14.0 °F -2.5 °F 8.6 °F 79% 29.90 in 10.0 mi SSW 17.3 mph 20.7 mph N/A   Unknown
2:15 PM 14.0 °F -1.4 °F 8.6 °F 79% 29.90 in 10.0 mi SSW 15.0 mph - N/A   Unknown
2:35 PM 15.8 °F -1.1 °F 10.4 °F 79% 29.90 in 10.0 mi SSW 19.6 mph - N/A   Unknown
2:55 PM 15.8 °F -1.1 °F 10.4 °F 79% 29.89 in 10.0 mi SSW 19.6 mph 24.2 mph N/A   Unknown
3:15 PM 15.8 °F -1.1 °F 10.4 °F 79% 29.89 in 10.0 mi South 19.6 mph - N/A   Unknown
3:35 PM 15.8 °F -1.1 °F 10.4 °F 79% 29.88 in 10.0 mi South 19.6 mph - N/A   Clear
3:55 PM 15.8 °F -0.6 °F 10.4 °F 79% 29.88 in 10.0 mi South 18.4 mph - N/A   Unknown
4:15 PM 15.8 °F -0.6 °F 10.4 °F 79% 29.88 in 10.0 mi South 18.4 mph - N/A   Unknown
4:35 PM 15.8 °F -2.3 °F 10.4 °F 79% 29.86 in 10.0 mi South 23.0 mph 27.6 mph N/A   Unknown
4:55 PM 15.8 °F -1.5 °F 10.4 °F 79% 29.85 in 10.0 mi South 20.7 mph 26.5 mph N/A   Unknown
5:35 PM 15.8 °F -1.9 °F 12.2 °F 86% 29.82 in 10.0 mi South 21.9 mph 26.5 mph N/A   Mostly Cloudy
5:55 PM 15.8 °F -1.9 °F 14.0 °F 93% 29.81 in 10.0 mi South 21.9 mph 25.3 mph N/A   Unknown
6:15 PM 17.6 °F 0.9 °F 14.0 °F 86% 29.79 in 10.0 mi South 20.7 mph 26.5 mph N/A   Unknown
6:35 PM 17.6 °F 0.1 °F 14.0 °F 86% 29.78 in 10.0 mi South 23.0 mph 26.5 mph N/A   Unknown
6:55 PM 17.6 °F 0.5 °F 14.0 °F 86% 29.78 in 10.0 mi South 21.9 mph 27.6 mph N/A   Unknown
7:15 PM 17.6 °F -0.3 °F 14.0 °F 86% 29.75 in 10.0 mi South 24.2 mph 28.8 mph N/A   Unknown
7:35 PM 17.6 °F -0.3 °F 15.8 °F 93% 29.74 in 3.0 mi South 24.2 mph 29.9 mph N/A Snow Light Snow
7:55 PM 17.6 °F -1.0 °F 17.6 °F 100% 29.73 in 2.5 mi South 26.5 mph 29.9 mph N/A Snow Light Snow
8:15 PM 19.4 °F 2.1 °F 19.4 °F 100% 29.71 in 10.0 mi South 24.2 mph 29.9 mph N/A   Unknown
8:35 PM 19.4 °F 2.5 °F 19.4 °F 100% 29.70 in 10.0 mi South 23.0 mph 31.1 mph N/A   Unknown
8:55 PM 21.2 °F 4.5 °F 19.4 °F 93% 29.68 in 10.0 mi South 24.2 mph 32.2 mph N/A   Unknown
9:15 PM 21.2 °F 4.9 °F 21.2 °F 100% 29.66 in 10.0 mi South 23.0 mph 29.9 mph N/A   Unknown
9:35 PM 23.0 °F 7.2 °F 23.0 °F 100% 29.66 in 10.0 mi SSW 23.0 mph - N/A   Unknown
9:55 PM 23.0 °F 7.6 °F 23.0 °F 100% 29.64 in 10.0 mi SSW 21.9 mph 29.9 mph N/A   Unknown
10:15 PM 24.8 °F 9.3 °F 24.8 °F 100% 29.63 in 9.0 mi SSW 24.2 mph 32.2 mph N/A   Overcast
10:35 PM 24.8 °F 10.7 °F 24.8 °F 100% 29.63 in 10.0 mi SSW 19.6 mph 25.3 mph N/A   Overcast
10:55 PM 26.6 °F 14.7 °F 26.6 °F 100% 29.62 in 5.0 mi SSW 15.0 mph - N/A   Unknown
11:15 PM 28.4 °F 16.6 °F 28.4 °F 100% 29.61 in 8.0 mi SSW 16.1 mph - N/A   Unknown
11:35 PM 28.4 °F 16.6 °F 28.4 °F 100% 29.61 in 5.0 mi SSW 16.1 mph 20.7 mph N/A   Mist
11:55 PM 30.2 °F 20.8 °F 30.2 °F 100% 29.60 in 10.0 mi SW 11.5 mph - N/A   Unknown